| time (UTC) | temp C | wind direction | speed KPH | gust KPH | rain 1hr cm | rain 24hr cm | rain mn cm | humidity % | barometer mb |
| 20260904174132 | 33 | 95 | 1.6 | 1.6 | 0.00 | 0.00 | 0.00 | 60 | 1035.9 |
| 20260904173627 | 33 | 25 | 0.0 | 0.0 | 0.00 | 0.00 | 0.00 | 60 | 1035.8 |
| 20260904173123 | 32 | 102 | 1.6 | 1.6 | 0.00 | 0.00 | 0.00 | 62 | 1036.0 |
| 20260904172619 | 32 | 1 | 0.0 | 0.0 | 0.00 | 0.00 | 0.00 | 63 | 1035.9 |
| 20260904172118 | 32 | 22 | 0.0 | 0.0 | 0.00 | 0.00 | 0.00 | 63 | 1036.0 |
| 20260904171613 | 32 | 6 | 0.0 | 0.0 | 0.00 | 0.00 | 0.00 | 66 | 1036.1 |
| 20260904171109 | 32 | 3 | 0.0 | 0.0 | 0.00 | 0.00 | 0.00 | 64 | 1036.2 |
| 20260904170604 | 32 | 79 | 1.6 | 3.2 | 0.00 | 0.00 | 0.00 | 61 | 1036.3 |
| 20260904170100 | 32 | 20 | 0.0 | 0.0 | 0.00 | 0.00 | 0.00 | 63 | 1036.1 |
| 20260904165559 | 33 | 17 | 0.0 | 0.0 | 0.00 | 0.00 | 0.00 | 61 | 1036.0 |
| 20260904165058 | 33 | 15 | 0.0 | 0.0 | 0.00 | 0.00 | 0.00 | 63 | 1036.1 |
| 20260904164553 | 32 | 165 | 1.6 | 3.2 | 0.00 | 0.00 | 0.00 | 64 | 1036.1 |
| 20260904164049 | 32 | 15 | 0.0 | 0.0 | 0.00 | 0.00 | 0.00 | 65 | 1036.3 |
| 20260904163549 | 32 | 24 | 0.0 | 0.0 | 0.00 | 0.00 | 0.00 | 65 | 1036.2 |
| 20260904163044 | 32 | 305 | 0.0 | 0.0 | 0.00 | 0.00 | 0.00 | 64 | 1036.4 |
| 20260904162538 | 32 | 358 | 0.0 | 0.0 | 0.00 | 0.00 | 0.00 | 66 | 1036.7 |
| 20260904162034 | 32 | 15 | 0.0 | 0.0 | 0.00 | 0.00 | 0.00 | 65 | 1036.7 |
| 20260904161529 | 32 | 15 | 0.0 | 0.0 | 0.00 | 0.00 | 0.00 | 64 | 1036.6 |
| 20260904161024 | 32 | 357 | 0.0 | 0.0 | 0.00 | 0.00 | 0.00 | 63 | 1036.7 |
| 20260904160519 | 32 | 2 | 0.0 | 0.0 | 0.00 | 0.00 | 0.00 | 63 | 1036.7 |
| 20260904160015 | 32 | 358 | 0.0 | 0.0 | 0.00 | 0.00 | 0.00 | 64 | 1036.9 |
| 20260904155509 | 32 | 8 | 0.0 | 0.0 | 0.00 | 0.00 | 0.00 | 65 | 1036.8 |
| 20260904155009 | 32 | 171 | 0.0 | 1.6 | 0.00 | 0.00 | 0.00 | 66 | 1036.7 |
| 20260904154502 | 31 | 9 | 0.0 | 0.0 | 0.00 | 0.00 | 0.00 | 66 | 1036.7 |
| 20260904153957 | 31 | 18 | 0.0 | 0.0 | 0.00 | 0.00 | 0.00 | 68 | 1036.6 |
| 20260904153452 | 31 | 25 | 0.0 | 0.0 | 0.00 | 0.00 | 0.00 | 68 | 1036.8 |
| 20260904152949 | 31 | 143 | 1.6 | 1.6 | 0.00 | 0.00 | 0.00 | 67 | 1036.6 |
| 20260904152444 | 31 | 51 | 0.0 | 0.0 | 0.00 | 0.00 | 0.00 | 66 | 1036.6 |
| 20260904151943 | 31 | 357 | 0.0 | 0.0 | 0.00 | 0.00 | 0.00 | 72 | 1036.5 |
| 20260904151439 | 30 | 357 | 0.0 | 0.0 | 0.00 | 0.00 | 0.00 | 72 | 1036.8 |
| 20260904150933 | 30 | 13 | 0.0 | 0.0 | 0.00 | 0.00 | 0.00 | 71 | 1036.5 |
| 20260904150428 | 30 | 13 | 0.0 | 0.0 | 0.00 | 0.00 | 0.00 | 73 | 1036.5 |
| 20260904145926 | 30 | 35 | 0.0 | 0.0 | 0.00 | 0.00 | 0.00 | 74 | 1036.7 |
| 20260904145423 | 30 | 309 | 0.0 | 0.0 | 0.00 | 0.00 | 0.00 | 73 | 1036.7 |
| 20260904144918 | 31 | 15 | 0.0 | 0.0 | 0.00 | 0.00 | 0.00 | 71 | 1036.3 |
| 20260904144414 | 31 | 357 | 0.0 | 0.0 | 0.00 | 0.00 | 0.00 | 69 | 1036.6 |
| 20260904143909 | 31 | 16 | 0.0 | 0.0 | 0.00 | 0.00 | 0.00 | 70 | 1036.4 |
| 20260904143406 | 31 | 8 | 0.0 | 0.0 | 0.00 | 0.00 | 0.00 | 70 | 1036.4 |
| 20260904142902 | 30 | 9 | 0.0 | 0.0 | 0.00 | 0.00 | 0.00 | 73 | 1036.3 |
| 20260904142357 | 30 | 354 | 0.0 | 0.0 | 0.00 | 0.00 | 0.00 | 79 | 1036.4 |
| 20260904141851 | 29 | 21 | 0.0 | 0.0 | 0.00 | 0.00 | 0.00 | 79 | 1036.3 |
| 20260904141347 | 28 | 22 | 0.0 | 0.0 | 0.00 | 0.00 | 0.00 | 80 | 1036.5 |
| 20260904140843 | 28 | 31 | 0.0 | 0.0 | 0.00 | 0.00 | 0.00 | 80 | 1036.6 |
| 20260904140337 | 27 | 336 | 0.0 | 0.0 | 0.00 | 0.00 | 0.00 | 83 | 1036.5 |
| 20260904135837 | 27 | 83 | 0.0 | 0.0 | 0.00 | 0.00 | 0.00 | 83 | 1036.5 |
| 20260904135332 | 27 | 59 | 0.0 | 0.0 | 0.00 | 0.00 | 0.00 | 83 | 1036.6 |
| 20260904134828 | 27 | 2 | 0.0 | 0.0 | 0.00 | 0.00 | 0.00 | 83 | 1036.6 |
| 20260904134328 | 27 | 319 | 0.0 | 0.0 | 0.00 | 0.00 | 0.00 | 83 | 1036.5 |
| 20260904133822 | 27 | 9 | 0.0 | 0.0 | 0.00 | 0.00 | 0.00 | 85 | 1036.4 |
| 20260904133318 | 27 | 350 | 0.0 | 0.0 | 0.00 | 0.00 | 0.00 | 86 | 1036.6 |
| 20260904132817 | 26 | 357 | 0.0 | 0.0 | 0.00 | 0.00 | 0.00 | 86 | 1036.3 |
| 20260904132313 | 26 | 6 | 0.0 | 0.0 | 0.00 | 0.00 | 0.00 | 88 | 1036.3 |
| 20260904131812 | 26 | 4 | 0.0 | 0.0 | 0.00 | 0.00 | 0.00 | 89 | 1036.3 |
| 20260904131308 | 26 | 354 | 0.0 | 0.0 | 0.00 | 0.00 | 0.00 | 91 | 1036.2 |
| 20260904130808 | 25 | 184 | 0.0 | 0.0 | 0.00 | 0.00 | 0.00 | 92 | 1036.5 |
| 20260904130308 | 25 | 34 | 0.0 | 0.0 | 0.00 | 0.00 | 0.00 | 93 | 1036.3 |
| 20260904125803 | 25 | 38 | 0.0 | 0.0 | 0.00 | 0.00 | 0.00 | 94 | 1036.4 |
| 20260904125258 | 25 | 282 | 0.0 | 0.0 | 0.00 | 0.00 | 0.00 | 94 | 1036.2 |
| 20260904124753 | 25 | 332 | 0.0 | 0.0 | 0.00 | 0.00 | 0.00 | 94 | 1036.2 |
| 20260904124250 | 25 | 36 | 0.0 | 0.0 | 0.00 | 0.00 | 0.00 | 95 | 1035.9 |
| 20260904123750 | 25 | 72 | 0.0 | 0.0 | 0.00 | 0.00 | 0.00 | 95 | 1036.0 |
| 20260904123245 | 25 | 359 | 0.0 | 0.0 | 0.00 | 0.00 | 0.00 | 95 | 1036.0 |
| 20260904122740 | 25 | 40 | 0.0 | 0.0 | 0.00 | 0.00 | 0.00 | 95 | 1035.8 |
| 20260904122234 | 25 | 44 | 0.0 | 0.0 | 0.00 | 0.00 | 0.00 | 95 | 1035.8 |
| 20260904121730 | 25 | 70 | 0.0 | 0.0 | 0.00 | 0.00 | 0.00 | 96 | 1035.9 |
| 20260904121225 | 24 | 37 | 0.0 | 0.0 | 0.00 | 0.00 | 0.00 | 96 | 1035.8 |
| 20260904120722 | 24 | 1 | 0.0 | 0.0 | 0.00 | 0.00 | 0.00 | 96 | 1035.9 |
| 20260904120217 | 24 | 1 | 0.0 | 0.0 | 0.00 | 0.00 | 0.00 | 96 | 1035.6 |
| 20260904115712 | 24 | 3 | 0.0 | 0.0 | 0.00 | 0.00 | 0.00 | 96 | 1035.8 |
| 20260904115212 | 24 | 82 | 0.0 | 0.0 | 0.00 | 0.00 | 0.00 | 96 | 1035.6 |
| 20260904114707 | 24 | 75 | 0.0 | 0.0 | 0.00 | 0.00 | 0.00 | 96 | 1035.4 |
| 20260904114201 | 24 | 4 | 0.0 | 0.0 | 0.00 | 0.00 | 0.00 | 96 | 1035.4 |
| 20260904113656 | 24 | 17 | 0.0 | 0.0 | 0.00 | 0.00 | 0.00 | 96 | 1035.5 |
| 20260904113155 | 24 | 33 | 0.0 | 0.0 | 0.00 | 0.00 | 0.00 | 96 | 1035.5 |
| 20260904112650 | 24 | 81 | 0.0 | 0.0 | 0.00 | 0.00 | 0.00 | 96 | 1035.3 |
| 20260904112146 | 24 | 110 | 0.0 | 0.0 | 0.00 | 0.00 | 0.00 | 96 | 1035.5 |
| 20260904111642 | 24 | 84 | 0.0 | 0.0 | 0.00 | 0.00 | 0.00 | 96 | 1035.4 |
| 20260904111137 | 24 | 280 | 0.0 | 0.0 | 0.00 | 0.00 | 0.00 | 96 | 1035.2 |
| 20260904110632 | 24 | 351 | 0.0 | 0.0 | 0.00 | 0.00 | 0.00 | 96 | 1035.3 |
| 20260904110127 | 24 | 352 | 0.0 | 0.0 | 0.00 | 0.00 | 0.00 | 96 | 1035.0 |
| 20260904105626 | 24 | 352 | 0.0 | 0.0 | 0.00 | 0.00 | 0.00 | 95 | 1035.2 |
| 20260904105121 | 24 | 352 | 0.0 | 0.0 | 0.00 | 0.00 | 0.00 | 95 | 1035.1 |
| 20260904104617 | 25 | 352 | 0.0 | 0.0 | 0.00 | 0.00 | 0.00 | 95 | 1035.2 |
| 20260904104112 | 25 | 352 | 0.0 | 0.0 | 0.00 | 0.00 | 0.00 | 95 | 1034.8 |
| 20260904103608 | 25 | 352 | 0.0 | 0.0 | 0.00 | 0.00 | 0.00 | 95 | 1035.1 |
| 20260904103104 | 25 | 352 | 0.0 | 0.0 | 0.00 | 0.00 | 0.00 | 95 | 1035.2 |
| 20260904102600 | 25 | 353 | 0.0 | 0.0 | 0.00 | 0.00 | 0.00 | 95 | 1035.1 |
| 20260904102055 | 25 | 352 | 0.0 | 0.0 | 0.00 | 0.00 | 0.00 | 95 | 1035.0 |
| 20260904101551 | 25 | 353 | 0.0 | 0.0 | 0.00 | 0.00 | 0.00 | 95 | 1034.8 |
| 20260904101047 | 25 | 353 | 0.0 | 0.0 | 0.00 | 0.00 | 0.00 | 94 | 1034.7 |
| 20260904100542 | 25 | 353 | 0.0 | 0.0 | 0.00 | 0.00 | 0.00 | 94 | 1035.0 |
| 20260904100031 | 25 | 353 | 0.0 | 0.0 | 0.00 | 0.00 | 0.00 | 94 | 1035.0 |
| 20260904095526 | 25 | 352 | 0.0 | 0.0 | 0.00 | 0.00 | 0.00 | 94 | 1034.6 |
| 20260904095022 | 25 | 350 | 0.0 | 0.0 | 0.00 | 0.00 | 0.00 | 94 | 1034.6 |
| 20260904094516 | 25 | 12 | 0.0 | 0.0 | 0.00 | 0.00 | 0.00 | 94 | 1034.7 |
| 20260904094011 | 25 | 1 | 0.0 | 0.0 | 0.00 | 0.00 | 0.00 | 94 | 1035.1 |
| 20260904093508 | 25 | 1 | 0.0 | 0.0 | 0.00 | 0.00 | 0.00 | 94 | 1034.7 |
| 20260904093003 | 25 | 1 | 0.0 | 0.0 | 0.00 | 0.00 | 0.00 | 94 | 1034.6 |
| 20260904092459 | 25 | 1 | 0.0 | 0.0 | 0.00 | 0.00 | 0.00 | 94 | 1034.7 |
| 20260904091955 | 25 | 0 | 0.0 | 0.0 | 0.00 | 0.00 | 0.00 | 93 | 1034.8 |
| 20260904091450 | 25 | 6 | 0.0 | 0.0 | 0.00 | 0.00 | 0.00 | 94 | 1034.7 |
| 20260904090944 | 25 | 32 | 0.0 | 0.0 | 0.00 | 0.00 | 0.00 | 94 | 1034.6 |
| 20260904090440 | 25 | 113 | 0.0 | 0.0 | 0.00 | 0.00 | 0.00 | 94 | 1034.6 |
| 20260904085935 | 25 | 66 | 0.0 | 0.0 | 0.00 | 0.00 | 0.00 | 93 | 1034.4 |
| 20260904085431 | 25 | 355 | 0.0 | 0.0 | 0.00 | 0.00 | 0.00 | 93 | 1034.7 |
| 20260904084925 | 25 | 355 | 0.0 | 0.0 | 0.00 | 0.00 | 0.00 | 93 | 1034.6 |
| 20260904084422 | 25 | 354 | 0.0 | 0.0 | 0.00 | 0.00 | 0.00 | 92 | 1034.7 |
| 20260904083917 | 25 | 354 | 0.0 | 0.0 | 0.00 | 0.00 | 0.00 | 92 | 1034.6 |
| 20260904083413 | 25 | 355 | 0.0 | 0.0 | 0.00 | 0.00 | 0.00 | 92 | 1034.8 |
| 20260904082909 | 25 | 355 | 0.0 | 0.0 | 0.00 | 0.00 | 0.00 | 93 | 1034.5 |
| 20260904082409 | 25 | 355 | 0.0 | 0.0 | 0.00 | 0.00 | 0.00 | 93 | 1034.6 |
| 20260904081903 | 25 | 355 | 0.0 | 0.0 | 0.00 | 0.00 | 0.00 | 93 | 1034.7 |
| 20260904081359 | 25 | 358 | 0.0 | 0.0 | 0.00 | 0.00 | 0.00 | 93 | 1034.8 |
| 20260904080855 | 25 | 343 | 0.0 | 0.0 | 0.00 | 0.00 | 0.00 | 93 | 1034.8 |
| 20260904080350 | 26 | 358 | 0.0 | 0.0 | 0.00 | 0.00 | 0.00 | 92 | 1034.7 |
| 20260904075846 | 25 | 356 | 0.0 | 0.0 | 0.00 | 0.00 | 0.00 | 91 | 1034.7 |
| 20260904075342 | 25 | 359 | 0.0 | 0.0 | 0.00 | 0.00 | 0.00 | 92 | 1034.7 |
| 20260904074840 | 26 | 1 | 0.0 | 0.0 | 0.00 | 0.00 | 0.00 | 92 | 1034.7 |
| 20260904074335 | 26 | 1 | 0.0 | 0.0 | 0.00 | 0.00 | 0.00 | 92 | 1034.7 |
| 20260904073831 | 25 | 25 | 0.0 | 0.0 | 0.00 | 0.00 | 0.00 | 92 | 1034.8 |
| 20260904073326 | 26 | 64 | 0.0 | 0.0 | 0.00 | 0.00 | 0.00 | 92 | 1034.7 |
| 20260904072822 | 26 | 5 | 0.0 | 0.0 | 0.00 | 0.00 | 0.00 | 92 | 1034.8 |
| 20260904072321 | 26 | 5 | 0.0 | 0.0 | 0.00 | 0.00 | 0.00 | 92 | 1035.2 |
| 20260904071817 | 26 | 2 | 0.0 | 0.0 | 0.00 | 0.00 | 0.00 | 92 | 1034.8 |
| 20260904071312 | 26 | 349 | 0.0 | 0.0 | 0.00 | 0.00 | 0.00 | 91 | 1034.7 |
| 20260904070807 | 26 | 349 | 0.0 | 0.0 | 0.00 | 0.00 | 0.00 | 91 | 1034.7 |
| 20260904070306 | 26 | 347 | 0.0 | 0.0 | 0.00 | 0.00 | 0.00 | 91 | 1034.6 |
| 20260904065801 | 26 | 59 | 0.0 | 0.0 | 0.00 | 0.00 | 0.00 | 91 | 1034.5 |
| 20260904065258 | 26 | 62 | 0.0 | 0.0 | 0.00 | 0.00 | 0.00 | 91 | 1034.8 |
| 20260904064757 | 26 | 78 | 0.0 | 0.0 | 0.00 | 0.00 | 0.00 | 90 | 1034.7 |
| 20260904064253 | 26 | 61 | 0.0 | 0.0 | 0.00 | 0.00 | 0.00 | 90 | 1034.8 |
| 20260904063749 | 26 | 357 | 0.0 | 0.0 | 0.00 | 0.00 | 0.00 | 90 | 1034.6 |
| 20260904063245 | 26 | 5 | 0.0 | 0.0 | 0.00 | 0.00 | 0.00 | 90 | 1034.6 |
| 20260904062740 | 26 | 5 | 0.0 | 0.0 | 0.00 | 0.00 | 0.00 | 90 | 1034.8 |
| 20260904062236 | 26 | 6 | 0.0 | 0.0 | 0.00 | 0.00 | 0.00 | 90 | 1035.0 |
| 20260904061731 | 26 | 6 | 0.0 | 0.0 | 0.00 | 0.00 | 0.00 | 90 | 1035.0 |
| 20260904061228 | 26 | 353 | 0.0 | 0.0 | 0.00 | 0.00 | 0.00 | 90 | 1034.6 |
| 20260904060724 | 26 | 315 | 0.0 | 0.0 | 0.00 | 0.00 | 0.00 | 90 | 1034.8 |
| 20260904060220 | 26 | 4 | 0.0 | 0.0 | 0.00 | 0.00 | 0.00 | 89 | 1035.0 |
| 20260904055715 | 26 | 4 | 0.0 | 0.0 | 0.00 | 0.00 | 0.00 | 89 | 1034.6 |
| 20260904055209 | 26 | 5 | 0.0 | 0.0 | 0.00 | 0.00 | 0.00 | 90 | 1034.7 |
| 20260904054705 | 26 | 33 | 0.0 | 0.0 | 0.00 | 0.00 | 0.00 | 90 | 1034.8 |
| 20260904054201 | 26 | 22 | 0.0 | 0.0 | 0.00 | 0.00 | 0.00 | 90 | 1034.8 |
| 20260904053655 | 26 | 328 | 0.0 | 0.0 | 0.00 | 0.00 | 0.00 | 90 | 1034.8 |
| 20260904053150 | 26 | 308 | 0.0 | 0.0 | 0.00 | 0.00 | 0.00 | 89 | 1035.0 |
| 20260904052647 | 26 | 273 | 1.6 | 1.6 | 0.00 | 0.00 | 0.00 | 89 | 1034.8 |
| 20260904052142 | 26 | 353 | 0.0 | 0.0 | 0.00 | 0.00 | 0.00 | 88 | 1034.8 |
| 20260904051638 | 26 | 353 | 0.0 | 0.0 | 0.00 | 0.00 | 0.00 | 88 | 1034.7 |
| 20260904051133 | 26 | 353 | 0.0 | 0.0 | 0.00 | 0.00 | 0.00 | 87 | 1034.8 |
| 20260904050629 | 26 | 353 | 0.0 | 0.0 | 0.00 | 0.00 | 0.00 | 87 | 1034.8 |
| 20260904050125 | 26 | 352 | 0.0 | 0.0 | 0.00 | 0.00 | 0.00 | 87 | 1035.1 |
| 20260904045619 | 26 | 354 | 0.0 | 0.0 | 0.00 | 0.00 | 0.00 | 87 | 1034.8 |
| 20260904045114 | 26 | 354 | 0.0 | 0.0 | 0.00 | 0.00 | 0.00 | 87 | 1035.2 |
| 20260904044609 | 26 | 354 | 0.0 | 0.0 | 0.00 | 0.00 | 0.00 | 87 | 1034.8 |
| 20260904044106 | 26 | 354 | 0.0 | 0.0 | 0.00 | 0.00 | 0.00 | 87 | 1034.7 |
| 20260904043602 | 26 | 354 | 0.0 | 0.0 | 0.00 | 0.00 | 0.00 | 87 | 1034.6 |
| 20260904043058 | 27 | 354 | 0.0 | 0.0 | 0.00 | 0.00 | 0.00 | 86 | 1035.0 |
| 20260904042553 | 27 | 354 | 0.0 | 0.0 | 0.00 | 0.00 | 0.00 | 86 | 1035.1 |
| 20260904042048 | 27 | 354 | 0.0 | 0.0 | 0.00 | 0.00 | 0.00 | 85 | 1035.0 |
| 20260904041544 | 27 | 354 | 0.0 | 0.0 | 0.00 | 0.00 | 0.00 | 84 | 1035.0 |
| 20260904041040 | 27 | 354 | 0.0 | 0.0 | 0.00 | 0.00 | 0.00 | 84 | 1034.8 |
| 20260904040540 | 27 | 2 | 0.0 | 0.0 | 0.00 | 0.00 | 0.00 | 84 | 1035.2 |
| 20260904040037 | 27 | 358 | 0.0 | 0.0 | 0.00 | 0.00 | 0.00 | 85 | 1035.0 |
| 20260904035537 | 27 | 357 | 0.0 | 0.0 | 0.00 | 0.00 | 0.00 | 85 | 1035.1 |
| 20260904035031 | 27 | 357 | 0.0 | 0.0 | 0.00 | 0.00 | 0.00 | 85 | 1035.1 |
| 20260904034526 | 27 | 357 | 0.0 | 0.0 | 0.00 | 0.00 | 0.00 | 85 | 1035.3 |
| 20260904034021 | 27 | 357 | 0.0 | 0.0 | 0.00 | 0.00 | 0.00 | 83 | 1035.1 |
| 20260904033518 | 27 | 357 | 0.0 | 0.0 | 0.00 | 0.00 | 0.00 | 83 | 1035.3 |
| 20260904033014 | 27 | 357 | 0.0 | 0.0 | 0.00 | 0.00 | 0.00 | 82 | 1035.2 |
| 20260904032509 | 27 | 357 | 0.0 | 0.0 | 0.00 | 0.00 | 0.00 | 82 | 1035.4 |
| 20260904032009 | 27 | 358 | 0.0 | 0.0 | 0.00 | 0.00 | 0.00 | 82 | 1035.1 |
| 20260904031504 | 27 | 336 | 0.0 | 0.0 | 0.00 | 0.00 | 0.00 | 82 | 1035.3 |
| 20260904031000 | 27 | 3 | 0.0 | 0.0 | 0.00 | 0.00 | 0.00 | 81 | 1035.0 |
| 20260904030455 | 27 | 3 | 0.0 | 0.0 | 0.00 | 0.00 | 0.00 | 81 | 1035.1 |
| 20260904025949 | 27 | 3 | 0.0 | 0.0 | 0.00 | 0.00 | 0.00 | 80 | 1035.2 |
| 20260904025446 | 27 | 3 | 0.0 | 0.0 | 0.00 | 0.00 | 0.00 | 80 | 1035.2 |
| 20260904024946 | 27 | 3 | 0.0 | 0.0 | 0.00 | 0.00 | 0.00 | 80 | 1035.2 |
| 20260904024441 | 27 | 3 | 0.0 | 0.0 | 0.00 | 0.00 | 0.00 | 80 | 1035.1 |
| 20260904023937 | 27 | 3 | 0.0 | 0.0 | 0.00 | 0.00 | 0.00 | 80 | 1035.4 |
| 20260904023433 | 28 | 3 | 0.0 | 0.0 | 0.00 | 0.00 | 0.00 | 80 | 1035.4 |
| 20260904022932 | 28 | 3 | 0.0 | 0.0 | 0.00 | 0.00 | 0.00 | 80 | 1035.3 |
| 20260904022429 | 28 | 3 | 0.0 | 0.0 | 0.00 | 0.00 | 0.00 | 80 | 1035.2 |
| 20260904021925 | 28 | 3 | 0.0 | 0.0 | 0.00 | 0.00 | 0.00 | 79 | 1035.1 |
| 20260904021421 | 28 | 3 | 0.0 | 0.0 | 0.00 | 0.00 | 0.00 | 79 | 1035.1 |
| 20260904020915 | 28 | 3 | 0.0 | 0.0 | 0.00 | 0.00 | 0.00 | 78 | 1035.1 |
| 20260904020411 | 28 | 3 | 0.0 | 0.0 | 0.00 | 0.00 | 0.00 | 78 | 1034.8 |
| 20260904015909 | 28 | 3 | 0.0 | 0.0 | 0.00 | 0.00 | 0.00 | 78 | 1034.8 |
| 20260904015405 | 28 | 3 | 0.0 | 0.0 | 0.00 | 0.00 | 0.00 | 78 | 1034.7 |
| 20260904014903 | 28 | 3 | 0.0 | 0.0 | 0.00 | 0.00 | 0.00 | 77 | 1034.7 |
| 20260904014359 | 28 | 3 | 0.0 | 0.0 | 0.00 | 0.00 | 0.00 | 77 | 1035.1 |
| 20260904013854 | 28 | 1 | 0.0 | 0.0 | 0.00 | 0.00 | 0.00 | 77 | 1035.0 |
| 20260904013350 | 28 | 356 | 0.0 | 0.0 | 0.00 | 0.00 | 0.00 | 77 | 1034.6 |
| 20260904012846 | 28 | 16 | 0.0 | 0.0 | 0.00 | 0.00 | 0.00 | 76 | 1034.8 |
| 20260904012340 | 28 | 16 | 0.0 | 0.0 | 0.00 | 0.00 | 0.00 | 76 | 1034.8 |
| 20260904011839 | 28 | 44 | 0.0 | 0.0 | 0.00 | 0.00 | 0.00 | 76 | 1034.7 |
| 20260904011335 | 29 | 2 | 0.0 | 0.0 | 0.00 | 0.00 | 0.00 | 75 | 1034.7 |
| 20260904010829 | 29 | 1 | 0.0 | 0.0 | 0.00 | 0.00 | 0.00 | 75 | 1034.2 |
| 20260904010327 | 29 | 36 | 0.0 | 0.0 | 0.00 | 0.00 | 0.00 | 74 | 1034.3 |
| 20260904005821 | 30 | 20 | 0.0 | 0.0 | 0.00 | 0.00 | 0.00 | 73 | 1034.3 |
| 20260904005317 | 30 | 333 | 0.0 | 0.0 | 0.00 | 0.00 | 0.00 | 73 | 1034.2 |
| 20260904004811 | 29 | 3 | 0.0 | 0.0 | 0.00 | 0.00 | 0.00 | 73 | 1034.1 |
| 20260904004308 | 29 | 4 | 0.0 | 0.0 | 0.00 | 0.00 | 0.00 | 73 | 1034.1 |
| 20260904003803 | 29 | 7 | 0.0 | 0.0 | 0.00 | 0.00 | 0.00 | 74 | 1034.2 |
| 20260904003259 | 30 | 7 | 0.0 | 0.0 | 0.00 | 0.00 | 0.00 | 73 | 1034.1 |
| 20260904002754 | 30 | 6 | 0.0 | 0.0 | 0.00 | 0.00 | 0.00 | 72 | 1034.1 |
| 20260904002250 | 30 | 2 | 0.0 | 0.0 | 0.00 | 0.00 | 0.00 | 71 | 1034.2 |
| 20260904001749 | 30 | 11 | 0.0 | 0.0 | 0.00 | 0.00 | 0.00 | 70 | 1033.9 |
| 20260904001244 | 30 | 31 | 0.0 | 0.0 | 0.00 | 0.00 | 0.00 | 70 | 1033.9 |
| 20260904000739 | 30 | 24 | 0.0 | 0.0 | 0.00 | 0.00 | 0.00 | 69 | 1033.9 |
| 20260904000234 | 30 | 16 | 0.0 | 0.0 | 0.00 | 0.00 | 0.00 | 71 | 1034.2 |
| 20260903235734 | 30 | 16 | 0.0 | 0.0 | 0.00 | 0.00 | 0.00 | 72 | 1034.0 |
| 20260903235230 | 30 | 1 | 1.6 | 1.6 | 0.00 | 0.00 | 0.00 | 71 | 1033.9 |
| 20260903234723 | 31 | 3 | 0.0 | 0.0 | 0.00 | 0.00 | 0.00 | 70 | 1033.8 |
| 20260903234220 | 31 | 3 | 0.0 | 0.0 | 0.00 | 0.00 | 0.00 | 69 | 1034.0 |
| 20260903233716 | 31 | 3 | 0.0 | 0.0 | 0.00 | 0.00 | 0.00 | 67 | 1033.8 |
| 20260903233212 | 31 | 34 | 0.0 | 0.0 | 0.00 | 0.00 | 0.00 | 66 | 1034.1 |
| 20260903232710 | 31 | 345 | 0.0 | 0.0 | 0.00 | 0.00 | 0.00 | 67 | 1034.1 |
| 20260903232207 | 31 | 357 | 0.0 | 0.0 | 0.00 | 0.00 | 0.00 | 68 | 1033.8 |
| 20260903231705 | 31 | 355 | 0.0 | 0.0 | 0.00 | 0.00 | 0.00 | 66 | 1033.9 |
| 20260903231201 | 32 | 344 | 0.0 | 0.0 | 0.00 | 0.00 | 0.00 | 64 | 1033.8 |
| 20260903230656 | 32 | 27 | 0.0 | 0.0 | 0.00 | 0.00 | 0.00 | 62 | 1033.7 |
| 20260903230156 | 33 | 18 | 0.0 | 0.0 | 0.00 | 0.00 | 0.00 | 60 | 1033.9 |
| 20260903225652 | 33 | 358 | 0.0 | 0.0 | 0.00 | 0.00 | 0.00 | 59 | 1033.7 |
| 20260903225149 | 33 | 24 | 0.0 | 0.0 | 0.00 | 0.00 | 0.00 | 59 | 1033.7 |
| 20260903224644 | 33 | 347 | 0.0 | 0.0 | 0.00 | 0.00 | 0.00 | 59 | 1033.7 |
| 20260903224141 | 33 | 343 | 0.0 | 0.0 | 0.00 | 0.00 | 0.00 | 59 | 1033.6 |
| 20260903223636 | 33 | 299 | 0.0 | 0.0 | 0.00 | 0.00 | 0.00 | 59 | 1033.6 |
| 20260903223133 | 33 | 2 | 0.0 | 0.0 | 0.00 | 0.00 | 0.00 | 60 | 1033.8 |
| 20260903222624 | 33 | 359 | 0.0 | 0.0 | 0.00 | 0.00 | 0.00 | 60 | 1033.7 |
| 20260903222122 | 33 | 3 | 0.0 | 0.0 | 0.00 | 0.00 | 0.00 | 59 | 1033.7 |
| 20260903221618 | 33 | 11 | 0.0 | 0.0 | 0.00 | 0.00 | 0.00 | 58 | 1033.7 |
| 20260903221116 | 33 | 355 | 0.0 | 0.0 | 0.00 | 0.00 | 0.00 | 58 | 1033.5 |
| 20260903220615 | 33 | 359 | 0.0 | 0.0 | 0.00 | 0.00 | 0.00 | 57 | 1033.5 |
| 20260903220115 | 33 | 10 | 0.0 | 0.0 | 0.00 | 0.00 | 0.00 | 55 | 1033.3 |
| 20260903215614 | 33 | 19 | 3.2 | 3.2 | 0.00 | 0.00 | 0.00 | 54 | 1033.4 |
| 20260903215109 | 33 | 352 | 1.6 | 1.6 | 0.00 | 0.00 | 0.00 | 54 | 1033.2 |
| 20260903214608 | 33 | 347 | 0.0 | 0.0 | 0.00 | 0.00 | 0.00 | 58 | 1033.2 |
| 20260903214103 | 33 | 341 | 0.0 | 0.0 | 0.00 | 0.00 | 0.00 | 57 | 1033.2 |
| 20260903213558 | 33 | 350 | 0.0 | 0.0 | 0.00 | 0.00 | 0.00 | 56 | 1033.3 |
| 20260903213054 | 34 | 358 | 3.2 | 3.2 | 0.00 | 0.00 | 0.00 | 57 | 1033.3 |
| 20260903212550 | 34 | 359 | 0.0 | 0.0 | 0.00 | 0.00 | 0.00 | 56 | 1033.3 |
| 20260903212045 | 34 | 34 | 0.0 | 0.0 | 0.00 | 0.00 | 0.00 | 54 | 1033.3 |
| 20260903211540 | 34 | 94 | 1.6 | 1.6 | 0.00 | 0.00 | 0.00 | 54 | 1033.3 |
| 20260903211036 | 34 | 8 | 0.0 | 0.0 | 0.00 | 0.00 | 0.00 | 54 | 1033.4 |
| 20260903210531 | 34 | 346 | 1.6 | 3.2 | 0.00 | 0.00 | 0.00 | 57 | 1033.4 |
| 20260903210026 | 34 | 16 | 0.0 | 0.0 | 0.00 | 0.00 | 0.00 | 54 | 1033.6 |
| 20260903205520 | 34 | 26 | 1.6 | 1.6 | 0.00 | 0.00 | 0.00 | 56 | 1033.6 |
| 20260903205015 | 34 | 18 | 0.0 | 1.6 | 0.00 | 0.00 | 0.00 | 57 | 1033.7 |
| 20260903204511 | 34 | 59 | 0.0 | 0.0 | 0.00 | 0.00 | 0.00 | 56 | 1033.5 |
| 20260903204006 | 34 | 0 | 0.0 | 1.6 | 0.00 | 0.00 | 0.00 | 56 | 1033.4 |
| 20260903203501 | 34 | 8 | 1.6 | 3.2 | 0.00 | 0.00 | 0.00 | 57 | 1033.7 |
| 20260903203000 | 34 | 40 | 0.0 | 1.6 | 0.00 | 0.00 | 0.00 | 55 | 1033.7 |
| 20260903202457 | 33 | 15 | 0.0 | 0.0 | 0.00 | 0.00 | 0.00 | 57 | 1033.6 |
| 20260903201951 | 33 | 7 | 0.0 | 0.0 | 0.00 | 0.00 | 0.00 | 58 | 1034.0 |
| 20260903201447 | 33 | 83 | 1.6 | 1.6 | 0.00 | 0.00 | 0.00 | 59 | 1033.8 |
| 20260903200945 | 34 | 9 | 0.0 | 1.6 | 0.00 | 0.00 | 0.00 | 56 | 1033.9 |
| 20260903200441 | 35 | 19 | 0.0 | 0.0 | 0.00 | 0.00 | 0.00 | 55 | 1034.1 |
| 20260903195935 | 35 | 25 | 0.0 | 0.0 | 0.00 | 0.00 | 0.00 | 54 | 1034.4 |
| 20260903195432 | 35 | 21 | 1.6 | 1.6 | 0.00 | 0.00 | 0.00 | 50 | 1034.4 |
| 20260903194926 | 35 | 3 | 0.0 | 0.0 | 0.00 | 0.00 | 0.00 | 55 | 1034.4 |
| 20260903194422 | 34 | 351 | 3.2 | 4.8 | 0.00 | 0.00 | 0.00 | 56 | 1034.3 |
| 20260903193917 | 34 | 5 | 0.0 | 0.0 | 0.00 | 0.00 | 0.00 | 56 | 1034.4 |
| 20260903193414 | 34 | 12 | 0.0 | 0.0 | 0.00 | 0.00 | 0.00 | 55 | 1034.5 |
| 20260903192908 | 35 | 20 | 0.0 | 1.6 | 0.00 | 0.00 | 0.00 | 52 | 1034.5 |
| 20260903192404 | 35 | 26 | 0.0 | 1.6 | 0.00 | 0.00 | 0.00 | 55 | 1034.7 |
| 20260903191901 | 34 | 19 | 0.0 | 0.0 | 0.00 | 0.00 | 0.00 | 56 | 1035.0 |
| 20260903191356 | 34 | 16 | 0.0 | 0.0 | 0.00 | 0.00 | 0.00 | 56 | 1034.8 |
| 20260903190855 | 35 | 358 | 1.6 | 1.6 | 0.00 | 0.00 | 0.00 | 53 | 1035.2 |
| 20260903190350 | 35 | 7 | 0.0 | 0.0 | 0.00 | 0.00 | 0.00 | 53 | 1035.0 |
| 20260903185849 | 35 | 349 | 0.0 | 0.0 | 0.00 | 0.00 | 0.00 | 54 | 1035.2 |
| 20260903185344 | 36 | 28 | 0.0 | 0.0 | 0.00 | 0.00 | 0.00 | 51 | 1035.2 |
| 20260903184840 | 35 | 18 | 1.6 | 1.6 | 0.00 | 0.00 | 0.00 | 51 | 1034.6 |
| 20260903184337 | 35 | 15 | 0.0 | 1.6 | 0.00 | 0.00 | 0.00 | 53 | 1035.2 |
| 20260903183832 | 36 | 357 | 0.0 | 1.6 | 0.00 | 0.00 | 0.00 | 51 | 1035.2 |
| 20260903183327 | 35 | 35 | 3.2 | 3.2 | 0.00 | 0.00 | 0.00 | 54 | 1035.0 |
| 20260903182826 | 35 | 162 | 1.6 | 1.6 | 0.00 | 0.00 | 0.00 | 52 | 1035.3 |
| 20260903182320 | 35 | 101 | 1.6 | 1.6 | 0.00 | 0.00 | 0.00 | 53 | 1035.4 |
| 20260903181820 | 34 | 11 | 0.0 | 1.6 | 0.00 | 0.00 | 0.00 | 57 | 1035.7 |
| 20260903181315 | 33 | 7 | 1.6 | 1.6 | 0.00 | 0.00 | 0.00 | 57 | 1035.6 |
| 20260903180814 | 34 | 18 | 0.0 | 0.0 | 0.00 | 0.00 | 0.00 | 56 | 1035.6 |
| 20260903180313 | 35 | 15 | 0.0 | 0.0 | 0.00 | 0.00 | 0.00 | 55 | 1035.8 |
| 20260903175808 | 35 | 140 | 3.2 | 4.8 | 0.00 | 0.00 | 0.00 | 52 | 1035.6 |
| 20260903175307 | 35 | 25 | 0.0 | 0.0 | 0.00 | 0.00 | 0.00 | 53 | 1035.8 |
| 20260903174802 | 35 | 75 | 1.6 | 1.6 | 0.00 | 0.00 | 0.00 | 52 | 1035.7 |